Temperature
8 8 8 8 8 9 9 9 10 10 10 10 10 10 10 10 10 11 11 11 11 11 11 11 11 11 11 11 11 11 11 11 11 11 11 11 11 11 11 11 11 11 11
7 7 7 8 8 8 8 9 9 9 9 10 10 10 10 10 10 10 10 11 11 11 11 11 11 11 11 11 11 11 11 11 11 11 10 10 10 10 10 10 11 10 10
6 6 6 7 7 7 8 8 8 9 9 9 9 9 9 9 9 9 10 10 10 11 10 11 11 11 11 11 11 11 11 11 10 10 10 10 10 10 10 10 10 10 10
5 5 5 6 6 7 7 7 8 8 8 8 9 9 9 9 9 9 9 9 10 10 10 10 10 10 10 10 10 11 10 11 10 10 10 10 10 10 9 9 10 10 10
4 4 4 5 5 6 6 7 7 7 8 8 8 8 8 9 9 9 9 9 9 9 9 10 10 10 10 10 10 10 10 10 10 10 10 10 10 10 10 9 9 9 9
3 3 4 4 5 5 5 6 7 7 7 7 8 8 8 8 8 8 8 8 8 9 9 9 9 10 10 10 10 10 10 10 10 10 10 10 10 10 10 9 9 9 9
2 2 3 3 4 4 5 5 6 6 6 7 7 7 7 7 8 8 8 8 8 8 8 9 9 9 9 9 9 10 10 10 10 10 10 9 9 9 9 9 9 8 8
1 1 2 2 3 3 4 4 5 5 6 6 6 7 7 7 7 8 8 8 8 8 8 8 9 9 9 9 9 9 9 9 9 9 9 9 9 9 9 9 9 8 8
-0 0 1 1 2 2 3 4 4 5 5 5 6 6 6 6 7 7 7 7 8 8 8 8 8 8 8 9 9 9 9 9 9 9 9 9 9 9 9 9 9 8 8
-1 -1 -0 0 1 2 2 3 3 4 5 5 5 5 6 6 6 6 7 7 7 7 8 8 8 8 8 8 8 8 8 8 8 8 8 8 8 8 8 8 8 8 8
-2 -1 -1 -1 -0 1 2 2 3 3 4 4 5 5 5 5 6 6 6 7 7 7 7 7 8 8 8 8 8 8 8 8 8 8 8 8 8 8 8 8 8 7 7
-3 -2 -2 -2 -1 -0 1 2 2 3 3 4 4 5 5 5 5 6 6 6 6 7 7 7 7 7 8 8 8 8 8 8 8 8 8 7 7 7 7 7 7 7 7
-3 -3 -2 -2 -2 -1 -0 1 1 2 3 3 4 4 4 4 5 5 5 6 6 6 6 7 7 7 7 7 7 7 7 7 7 7 7 7 7 7 7 7 7 7 7
-4 -4 -3 -3 -2 -2 -1 -0 0 1 2 2 3 3 3 4 4 4 5 5 5 5 6 6 6 6 7 7 7 7 7 7 7 7 7 6 6 6 7 7 7 6 6
-5 -4 -4 -4 -3 -2 -2 -1 -1 0 1 2 2 2 3 3 3 4 4 4 5 5 5 5 6 6 6 6 6 6 6 6 6 6 6 6 6 6 6 6 6 6 6
-5 -5 -5 -4 -4 -3 -2 -2 -1 -0 0 1 1 2 2 2 3 3 3 4 4 4 5 5 5 5 6 6 6 6 6 6 6 6 5 5 6 6 5 5 5 5 5
-6 -6 -5 -5 -4 -4 -3 -2 -2 -1 -0 0 1 1 1 2 2 2 3 3 3 4 4 4 5 5 5 5 5 5 5 5 5 5 5 5 5 5 5 5 5 5 4
-6 -6 -6 -5 -5 -4 -3 -3 -2 -2 -1 -1 -0 0 1 1 1 2 2 2 3 3 3 4 4 4 4 4 4 4 4 4 5 5 5 5 4 4 4 4 4 4 4
-6 -6 -6 -6 -5 -4 -4 -3 -2 -2 -2 -1 -1 -0 0 0 1 1 1 1 2 2 3 3 3 3 3 4 4 4 4 4 4 4 4 4 4 4 4 4 4 4 3
-7 -7 -6 -6 -5 -4 -4 -3 -3 -3 -2 -2 -1 -1 -1 -0 0 0 1 1 1 2 2 2 2 2 3 3 3 3 3 3 3 3 3 3 3 3 3 3 3 3 3
-7 -7 -7 -6 -5 -5 -4 -4 -3 -3 -3 -2 -2 -2 -1 -1 -1 -0 -0 0 1 1 1 1 1 2 2 2 2 2 2 2 2 2 2 3 3 3 3 3 3 2 2
-7 -7 -7 -6 -6 -5 -5 -5 -4 -4 -4 -3 -3 -2 -2 -2 -1 -1 -1 -0 -0 0 0 0 1 1 1 1 1 2 2 2 2 2 2 2 2 2 2 2 2 2 2
-8 -7 -7 -7 -6 -6 -6 -5 -5 -5 -4 -4 -3 -3 -3 -3 -2 -2 -1 -1 -1 -1 -1 -0 -0 -0 0 0 1 1 1 1 1 1 1 1 1 1 1 1 1 1 1
-8 -8 -7 -7 -7 -6 -6 -6 -6 -5 -5 -5 -4 -4 -3 -3 -3 -2 -2 -2 -2 -1 -1 -1 -1 -1 -1 -0 -0 -0 0 0 0 0 0 0 0 0 0 0 -0 -0 0
-8 -8 -8 -7 -7 -7 -7 -6 -6 -6 -5 -5 -5 -5 -4 -4 -3 -3 -3 -2 -2 -2 -2 -2 -2 -2 -1 -1 -1 -1 -1 -0 -0 -0 -0 -0 -0 -0 -1 -1 -1 -1 -1
-8 -8 -8 -8 -8 -7 -7 -7 -7 -6 -6 -6 -6 -6 -5 -5 -4 -4 -3 -3 -3 -3 -2 -2 -2 -2 -2 -2 -1 -1 -1 -1 -1 -1 -1 -1 -1 -1 -1 -1 -1 -1 -1
Wind_Speed
2 2 3 2 1 2 4 4 4 5 4 4 4 4 4 3 3 3 6 6 7 7 7 5 5 5 4 4 5 5 7 4 4 4 3 3 3 3 3 4 5 6 7
3 3 3 2 1 1 2 4 4 4 5 4 4 3 4 3 3 3 4 6 6 7 7 5 4 4 4 4 4 5 4 3 3 3 3 2 1 2 2 3 3 4 5
2 3 4 3 2 1 1 2 4 4 4 5 4 4 3 3 3 2 3 3 6 7 7 6 5 5 4 4 4 4 5 5 2 2 3 3 3 1 1 1 2 2 2
2 2 3 3 3 2 1 0 3 4 4 5 6 7 5 4 3 3 2 3 5 6 7 6 6 5 4 5 4 4 3 5 4 1 1 2 3 3 2 0 1 1 2
5 4 4 4 4 3 2 1 1 2 4 5 6 7 5 3 3 4 4 3 3 5 6 7 6 4 4 4 4 4 3 3 4 3 2 1 2 2 3 2 1 0 0
6 6 6 5 4 5 3 2 0 1 3 4 5 6 6 6 6 5 5 4 3 3 4 6 5 5 4 4 4 4 4 3 3 3 3 3 2 2 2 2 2 2 1
6 6 7 7 5 5 5 3 1 1 2 4 5 5 6 7 7 6 6 5 3 3 4 4 4 4 4 5 5 4 4 3 3 3 3 2 2 2 2 2 1 1 1
7 7 7 6 5 5 5 4 3 1 1 3 4 5 5 5 5 5 5 6 4 4 4 4 4 5 6 5 5 3 3 3 3 3 3 2 2 2 2 3 3 1 0
9 8 7 7 6 6 5 5 4 2 1 1 3 4 4 5 5 5 4 4 4 4 5 5 4 4 5 5 4 3 4 3 3 3 3 2 2 2 2 2 3 4 2
10 9 7 7 6 6 5 5 4 3 2 1 1 2 3 3 4 5 5 5 5 5 5 5 5 5 5 5 4 4 4 4 3 3 4 3 2 3 2 2 2 2 3
8 8 8 7 6 6 5 5 4 3 2 1 1 2 3 3 3 4 5 5 5 6 6 6 6 6 6 5 5 5 5 5 4 4 4 4 3 3 3 3 2 2 3
8 7 8 7 7 7 6 6 5 3 3 2 1 2 2 2 3 3 4 4 5 5 6 6 6 6 6 6 6 6 6 5 5 5 5 4 4 4 3 3 3 3 3
8 8 8 8 7 7 7 6 5 4 3 2 1 1 2 2 2 2 2 3 4 4 4 5 6 6 6 6 6 6 6 6 6 5 5 5 5 4 3 4 3 3 3
9 9 9 8 8 7 6 6 6 4 3 2 1 1 2 2 2 2 2 3 3 4 4 5 5 5 5 5 5 6 6 6 5 5 5 5 5 5 5 4 4 3 3
10 10 10 9 9 8 7 7 6 4 4 2 1 1 1 2 2 2 2 3 3 4 4 4 4 4 4 5 6 6 6 5 5 4 4 4 5 5 5 4 4 4 4
10 11 11 11 10 10 9 8 7 5 4 3 1 1 1 1 2 2 2 2 3 3 4 4 5 4 4 5 7 6 5 5 5 5 4 3 5 5 5 5 5 5 5
10 11 11 10 10 10 9 8 7 5 4 3 2 0 0 1 1 1 2 2 3 3 3 3 4 4 4 6 7 7 5 5 5 5 5 3 3 5 4 4 4 3 3
11 11 10 10 10 9 9 8 6 4 3 3 2 1 1 1 1 1 2 2 1 2 3 3 3 3 4 5 6 6 5 4 4 4 5 5 4 4 6 5 4 2 1
10 10 10 10 10 9 9 8 6 5 4 4 3 2 1 1 1 2 2 1 1 2 3 3 4 4 3 5 6 6 4 4 3 3 4 5 5 7 8 6 5 4 2
9 9 10 10 10 10 8 6 6 5 5 5 5 3 2 2 2 2 2 1 2 2 3 3 3 3 4 5 6 5 4 4 3 3 3 4 6 7 8 6 6 6 4
10 9 9 9 9 9 7 6 6 6 6 6 5 4 2 2 2 1 1 2 2 2 3 3 2 3 3 5 6 6 4 5 4 3 3 2 5 6 7 6 5 6 5
10 9 8 9 9 8 6 6 6 6 6 5 4 4 2 2 1 0 1 1 2 3 3 3 2 2 2 3 4 5 5 4 4 4 3 3 6 6 6 4 5 6 5
9 8 8 9 8 7 6 6 7 6 6 5 4 4 3 2 1 0 1 1 2 2 2 3 2 2 2 2 4 4 5 4 3 3 5 5 6 5 4 4 5 5 3
8 8 8 8 8 8 7 6 6 6 5 5 4 4 3 2 2 1 0 1 1 2 2 3 2 2 2 2 2 3 3 4 4 4 5 5 5 3 3 3 3 2 3
8 7 7 7 8 8 7 7 6 6 5 5 4 4 4 2 2 2 1 1 1 1 2 2 2 3 3 2 3 3 3 4 4 5 3 3 3 2 2 2 2 2 2
7 7 6 7 7 7 8 7 6 5 5 5 4 3 3 3 2 2 2 4 2 2 2 1 1 1 2 3 4 4 5 5 7 4 4 3 3 3 3 3 2 2 2
Wind_Direction
321 349 4 10 51 121 141 150 157 159 152 152 152 149 152 143 131 122 135 140 149 151 142 140 139 134 135 146 141 130 126 121 119 104 88 55 59 77 79 77 87 96 104
348 349 353 5 27 62 129 157 159 166 163 161 161 156 152 149 134 118 137 148 152 151 148 143 144 140 137 132 133 132 133 140 145 137 132 124 51 35 57 69 78 82 97
334 336 339 339 346 356 102 159 171 169 168 156 145 135 126 123 128 138 147 151 153 155 155 152 147 147 143 145 145 145 145 157 171 137 138 145 171 146 47 76 86 90 81
356 347 334 330 320 314 348 140 172 169 167 162 158 153 154 155 157 161 156 152 152 156 157 156 153 149 146 148 154 146 149 153 162 159 92 113 125 136 142 360 55 96 94
4 1 349 332 336 338 347 346 136 173 172 168 166 161 161 156 145 146 150 158 154 158 160 159 156 153 155 152 150 145 152 158 159 157 142 111 85 105 135 171 196 350 40
5 3 357 354 351 349 349 344 175 181 179 171 169 168 165 156 151 152 161 165 164 161 160 159 157 160 159 159 154 157 168 171 164 156 149 147 146 165 148 168 180 186 223
4 359 358 357 353 354 343 336 319 217 193 183 178 177 171 167 165 167 169 165 166 170 173 167 164 160 161 162 157 155 167 170 168 168 165 160 158 145 137 136 157 159 195
3 358 353 353 351 351 351 339 335 324 232 198 190 180 174 172 173 171 170 172 176 176 172 170 167 164 160 159 158 153 164 161 168 170 162 147 147 130 139 147 147 145 270
360 353 352 352 353 348 346 337 329 334 319 241 203 187 182 179 173 172 175 174 168 166 165 168 167 168 164 161 157 160 169 166 171 172 166 160 158 149 153 150 156 158 188
354 351 350 348 345 341 342 344 329 317 300 268 207 197 194 189 181 176 179 177 172 167 168 173 173 173 170 166 162 163 169 170 175 169 171 176 173 167 162 167 174 166 175
348 348 347 342 343 344 345 346 332 333 323 291 228 192 200 199 190 183 182 182 177 175 176 177 177 179 177 172 169 173 171 176 179 178 178 187 176 173 176 175 179 178 164
353 354 352 347 349 347 347 345 338 329 320 304 270 199 192 189 190 186 184 182 185 184 183 179 180 181 178 176 174 178 178 181 185 187 185 192 178 175 177 180 187 187 179
356 356 354 351 349 346 343 344 337 336 329 321 295 189 180 184 191 194 187 182 185 189 188 181 185 186 184 184 183 182 182 184 188 187 187 189 178 187 185 185 191 190 178
353 353 351 348 344 340 338 341 332 334 334 319 284 225 197 190 198 198 194 189 188 193 196 190 187 187 187 187 187 184 184 182 183 185 186 187 185 189 188 190 190 180 170
348 346 344 342 341 339 337 341 328 329 333 311 262 241 221 194 190 185 193 191 189 200 198 192 186 185 187 190 187 184 184 180 178 180 185 184 175 174 180 184 183 178 175
343 342 339 338 338 338 336 336 323 324 323 315 269 263 237 210 193 190 186 188 191 195 189 189 184 184 195 190 189 187 181 176 176 179 177 172 174 173 169 166 170 178 183
343 340 336 332 332 331 331 328 320 322 321 319 310 277 252 241 220 210 189 195 194 190 186 182 177 181 188 188 188 188 181 174 177 178 174 176 173 159 154 151 141 142 168
338 334 331 331 330 330 330 325 322 328 329 328 331 310 282 261 243 206 194 203 188 183 182 176 181 182 187 185 186 176 164 162 171 175 172 171 172 169 158 147 141 142 147
334 330 329 328 329 329 330 328 334 343 346 341 331 304 278 262 253 223 208 200 183 182 177 178 180 181 184 182 175 163 153 153 162 168 168 171 172 170 164 155 154 151 146
333 332 331 330 333 333 335 340 346 347 342 332 325 310 289 272 250 236 215 207 191 180 170 169 168 171 172 173 169 163 152 153 156 151 158 173 175 172 169 166 165 172 176
330 332 332 331 331 332 339 345 347 340 331 328 330 323 305 292 275 261 229 189 179 161 153 153 152 158 163 168 170 172 166 163 159 161 162 166 170 169 170 168 173 177 163
330 333 333 331 330 336 343 343 340 335 335 338 339 331 321 309 296 279 259 195 163 152 150 148 147 138 143 156 168 171 173 165 163 169 162 160 164 166 165 163 156 152 145
328 331 332 330 335 345 350 344 339 342 343 347 346 339 337 346 336 225 215 171 155 156 161 157 160 156 140 144 157 164 163 164 156 149 151 149 149 142 140 138 144 144 146
327 332 334 336 340 345 349 347 343 349 353 352 348 344 353 2 5 359 7 113 141 158 164 166 168 159 146 141 139 143 143 140 130 125 126 125 125 121 122 123 129 137 152
326 329 332 337 339 341 345 348 352 357 359 355 354 355 356 360 4 13 22 47 77 144 160 169 172 173 179 186 172 163 161 155 149 135 122 124 130 130 128 123 122 125 134
322 328 336 339 339 342 342 346 352 356 358 355 355 354 351 356 2 17 27 32 52 52 59 103 170 173 162 155 165 163 156 154 150 139 147 153 155 158 159 157 153 149 154
Height
1492 1492 1493 1494 1495 1497 1498 1500 1503 1505 1508 1510 1513 1516 1518 1522 1525 1528 1530 1533 1536 1538 1541 1544 1546 1548 1551 1554 1557 1559 1561 1564 1566 1568 1570 1572 1574 1575 1576 1577 1578 1579 1579
1489 1490 1491 1491 1493 1494 1496 1498 1500 1503 1505 1508 1511 1514 1516 1519 1522 1525 1528 1531 1533 1536 1539 1541 1544 1546 1549 1552 1554 1557 1559 1562 1564 1566 1568 1571 1574 1574 1575 1576 1577 1577 1578
1488 1488 1489 1490 1491 1492 1494 1495 1498 1500 1503 1506 1508 1511 1515 1517 1520 1522 1525 1528 1531 1533 1536 1539 1541 1544 1547 1549 1552 1554 1557 1559 1562 1564 1567 1568 1570 1572 1574 1574 1575 1576 1577
1488 1488 1488 1488 1489 1490 1492 1494 1495 1498 1500 1503 1505 1508 1510 1513 1516 1519 1522 1525 1528 1531 1533 1536 1539 1541 1544 1547 1549 1552 1555 1557 1559 1562 1564 1566 1567 1569 1571 1573 1573 1574 1575
1487 1487 1487 1487 1488 1488 1489 1491 1493 1495 1497 1500 1503 1505 1508 1511 1514 1517 1520 1522 1525 1528 1531 1533 1536 1539 1542 1544 1547 1549 1552 1554 1557 1559 1561 1563 1565 1566 1568 1569 1571 1572 1573
1486 1485 1485 1486 1486 1487 1487 1489 1490 1492 1494 1497 1500 1502 1505 1508 1511 1514 1517 1520 1522 1525 1528 1531 1534 1536 1539 1541 1544 1547 1549 1552 1554 1556 1558 1560 1562 1564 1565 1567 1568 1569 1571
1485 1484 1483 1483 1483 1484 1485 1486 1487 1489 1491 1493 1496 1499 1502 1505 1508 1511 1514 1516 1519 1522 1525 1528 1531 1533 1536 1539 1542 1544 1546 1549 1551 1553 1556 1557 1559 1562 1563 1564 1565 1567 1568
1485 1484 1483 1482 1482 1482 1483 1484 1485 1486 1488 1490 1493 1496 1499 1502 1505 1508 1511 1513 1516 1519 1522 1525 1528 1531 1534 1536 1539 1541 1544 1546 1548 1550 1552 1554 1556 1559 1560 1561 1563 1564 1565
1485 1484 1483 1482 1481 1481 1481 1482 1482 1484 1485 1488 1490 1492 1496 1499 1502 1505 1508 1511 1514 1517 1519 1522 1525 1528 1530 1533 1536 1538 1540 1543 1545 1547 1549 1551 1553 1555 1557 1558 1560 1562 1562
1485 1484 1482 1481 1480 1479 1479 1480 1480 1481 1483 1484 1487 1489 1492 1495 1499 1502 1505 1508 1511 1513 1516 1519 1522 1525 1527 1530 1532 1535 1537 1539 1541 1544 1546 1548 1550 1551 1553 1555 1556 1558 1559
1486 1484 1481 1480 1479 1478 1477 1477 1478 1479 1480 1481 1484 1487 1489 1492 1495 1498 1501 1505 1508 1510 1513 1516 1519 1521 1524 1526 1529 1531 1534 1536 1538 1540 1542 1544 1546 1548 1549 1551 1552 1554 1555
1486 1483 1481 1479 1477 1476 1475 1474 1475 1476 1477 1478 1480 1483 1486 1489 1492 1494 1498 1501 1504 1507 1510 1512 1515 1518 1520 1523 1525 1528 1530 1532 1534 1536 1538 1540 1542 1544 1545 1547 1548 1549 1551
1485 1482 1480 1478 1476 1474 1473 1472 1472 1473 1474 1475 1477 1480 1482 1485 1488 1491 1493 1497 1500 1503 1506 1509 1511 1514 1516 1519 1521 1524 1526 1528 1530 1532 1534 1536 1538 1539 1541 1542 1544 1545 1546
1485 1482 1479 1477 1475 1473 1472 1470 1470 1470 1471 1473 1474 1477 1479 1481 1485 1487 1490 1493 1496 1499 1502 1505 1507 1510 1512 1515 1517 1520 1522 1524 1526 1528 1530 1532 1534 1535 1537 1538 1539 1541 1542
1484 1481 1479 1476 1473 1471 1470 1468 1468 1468 1468 1470 1471 1473 1476 1478 1481 1484 1487 1489 1492 1495 1498 1501 1503 1506 1508 1511 1513 1515 1517 1519 1521 1524 1526 1528 1530 1531 1533 1534 1535 1536 1537
1484 1481 1478 1475 1472 1469 1468 1466 1465 1465 1466 1467 1468 1470 1473 1475 1477 1480 1482 1485 1488 1491 1494 1496 1498 1501 1504 1506 1509 1511 1513 1515 1517 1519 1521 1523 1525 1527 1528 1530 1531 1533 1533
1484 1481 1477 1474 1471 1469 1467 1465 1464 1463 1463 1464 1466 1468 1469 1471 1473 1475 1478 1480 1483 1486 1489 1491 1494 1496 1499 1502 1504 1506 1508 1510 1512 1514 1517 1518 1520 1522 1524 1525 1526 1528 1529
1483 1479 1476 1473 1470 1467 1465 1464 1462 1462 1462 1463 1464 1465 1466 1468 1470 1472 1474 1476 1479 1482 1484 1487 1489 1491 1494 1497 1499 1502 1504 1505 1508 1510 1512 1514 1516 1517 1519 1521 1522 1523 1524
1483 1479 1475 1472 1468 1465 1463 1461 1460 1460 1460 1460 1461 1462 1463 1465 1466 1468 1470 1473 1475 1477 1480 1482 1485 1487 1489 1492 1494 1497 1498 1500 1503 1505 1507 1509 1511 1513 1515 1516 1517 1519 1520
1481 1477 1473 1470 1466 1464 1461 1460 1458 1458 1458 1458 1459 1459 1461 1462 1464 1465 1467 1469 1471 1473 1476 1478 1481 1483 1485 1488 1490 1492 1494 1496 1498 1500 1502 1504 1507 1508 1510 1512 1513 1514 1516
1479 1475 1471 1468 1465 1463 1461 1459 1458 1457 1457 1457 1457 1458 1459 1460 1461 1463 1464 1466 1468 1470 1472 1474 1477 1479 1481 1483 1486 1488 1489 1491 1493 1495 1497 1500 1502 1504 1506 1507 1509 1510 1512
1476 1473 1469 1466 1464 1461 1460 1458 1457 1456 1456 1455 1455 1456 1456 1457 1459 1460 1461 1463 1465 1466 1468 1470 1473 1475 1477 1479 1481 1484 1486 1487 1489 1491 1493 1495 1498 1500 1502 1503 1505 1507 1508
1474 1471 1468 1465 1463 1461 1459 1457 1456 1455 1454 1453 1453 1454 1454 1455 1456 1457 1459 1460 1462 1463 1465 1467 1469 1471 1473 1475 1478 1480 1481 1483 1485 1487 1489 1491 1493 1495 1497 1499 1501 1502 1504
1472 1469 1466 1463 1461 1459 1457 1456 1455 1454 1453 1452 1452 1452 1452 1453 1454 1455 1456 1457 1459 1460 1462 1464 1465 1467 1469 1471 1473 1475 1477 1479 1481 1483 1485 1487 1489 1491 1493 1495 1497 1499 1500
1471 1468 1465 1463 1460 1458 1456 1455 1454 1452 1451 1451 1450 1450 1450 1451 1452 1453 1454 1456 1457 1458 1460 1461 1463 1464 1465 1468 1470 1471 1473 1475 1477 1479 1481 1483 1485 1487 1488 1491 1493 1495 1496
1469 1467 1464 1462 1460 1458 1456 1454 1453 1451 1450 1450 1449 1449 1449 1449 1450 1451 1452 1454 1455 1456 1458 1459 1460 1462 1463 1465 1467 1469 1470 1472 1475 1477 1477 1479 1481 1483 1485 1487 1489 1491 1492